ACA3759 KLAS-KLAX

Flight info

Callsign ACA3759
Flight time 0h 45m
Altitude 28000
Route RADYR2 BLAQQ SHTNR ANJLL4
Aircraft A320/M-SDE3FGHIRWY/LB1

Departure

Time 2026-05-03 20:32
Airport Harry Reid International Airport (KLAS)

Arrival

Time 2026-05-03 21:17
Airport Los Angeles International Airport (KLAX)
Time Latitude Longitude Altitude Speed Heading
2026-05-03 20:15 36.08161 -115.13933 2130 ft 0 kts 143°
2026-05-03 20:18 36.08164 -115.13936 2130 ft 3 kts 143°
2026-05-03 20:19 36.08169 -115.13941 2093 ft 4 kts 139°
2026-05-03 20:19 36.08185 -115.13966 2093 ft 4 kts 106°
2026-05-03 20:19 36.08188 -115.13998 2093 ft 4 kts 88°
2026-05-03 20:19 36.08187 -115.14031 2093 ft 4 kts 81°
2026-05-03 20:20 36.08184 -115.14056 2094 ft 0 kts 84°
2026-05-03 20:22 36.08195 -115.14038 2093 ft 4 kts 39°
2026-05-03 20:23 36.08219 -115.14067 2094 ft 8 kts 277°
2026-05-03 20:23 36.08235 -115.14143 2094 ft 11 kts 319°
2026-05-03 20:23 36.08319 -115.14159 2093 ft 15 kts
2026-05-03 20:23 36.08418 -115.14085 2092 ft 19 kts 45°
2026-05-03 20:24 36.08464 -115.13938 2092 ft 20 kts 93°
2026-05-03 20:24 36.08465 -115.13764 2092 ft 21 kts 89°
2026-05-03 20:24 36.08465 -115.13581 2092 ft 22 kts 89°
2026-05-03 20:24 36.08431 -115.13415 2093 ft 20 kts 142°
2026-05-03 20:25 36.08326 -115.13375 2092 ft 15 kts 182°
2026-05-03 20:25 36.08228 -115.13375 2090 ft 14 kts 168°
2026-05-03 20:25 36.08139 -115.13375 2089 ft 12 kts 180°
2026-05-03 20:25 36.08061 -115.13374 2089 ft 10 kts 179°
2026-05-03 20:26 36.07995 -115.13374 2089 ft 9 kts 179°
2026-05-03 20:26 36.07908 -115.13375 2089 ft 10 kts 180°
2026-05-03 20:26 36.07884 -115.13375 2089 ft 0 kts 180°
2026-05-03 20:28 36.07877 -115.13374 2089 ft 4 kts 177°
2026-05-03 20:28 36.07835 -115.13346 2089 ft 10 kts 116°
2026-05-03 20:28 36.07830 -115.13227 2086 ft 18 kts 88°
2026-05-03 20:28 36.07827 -115.13046 2078 ft 24 kts 97°
2026-05-03 20:29 36.07827 -115.12882 2073 ft 17 kts 89°
2026-05-03 20:29 36.07828 -115.12717 2066 ft 21 kts 89°
2026-05-03 20:29 36.07830 -115.12514 2059 ft 26 kts 90°
2026-05-03 20:29 36.07829 -115.12293 2054 ft 17 kts 94°
2026-05-03 20:30 36.07765 -115.12171 2050 ft 17 kts 130°
2026-05-03 20:30 36.07698 -115.12126 2048 ft 17 kts 177°
2026-05-03 20:30 36.07643 -115.12195 2051 ft 11 kts 263°
2026-05-03 20:30 36.07642 -115.12220 2050 ft 0 kts 269°
2026-05-03 20:31 36.07642 -115.12233 2050 ft 10 kts 269°
2026-05-03 20:31 36.07643 -115.12624 2064 ft 79 kts 270°
2026-05-03 20:31 36.07641 -115.13545 2091 ft 134 kts 270°
2026-05-03 20:31 36.07642 -115.14901 2108 ft 180 kts 270°
2026-05-03 20:32 36.07632 -115.16503 2517 ft 191 kts 272°
2026-05-03 20:32 36.07645 -115.18165 3211 ft 194 kts 268°
2026-05-03 20:32 36.07653 -115.19835 3837 ft 198 kts 262°
2026-05-03 20:32 36.07537 -115.21614 3995 ft 218 kts 253°
2026-05-03 20:33 36.07214 -115.23559 4153 ft 244 kts 251°
2026-05-03 20:33 36.06651 -115.25562 4665 ft 245 kts 229°
2026-05-03 20:33 36.05386 -115.26918 5231 ft 248 kts 200°
2026-05-03 20:33 36.03736 -115.27665 5824 ft 257 kts 195°
2026-05-03 20:34 36.02031 -115.28348 6671 ft 258 kts 195°
2026-05-03 20:34 36.00314 -115.29041 7478 ft 261 kts 196°
2026-05-03 20:34 35.98541 -115.29636 7938 ft 266 kts 187°
2026-05-03 20:34 35.96710 -115.30019 8827 ft 266 kts 189°
2026-05-03 20:35 35.94885 -115.30444 9727 ft 268 kts 190°
2026-05-03 20:35 35.93039 -115.30895 10369 ft 277 kts 190°
2026-05-03 20:35 35.91071 -115.31384 10593 ft 300 kts 191°
2026-05-03 20:35 35.88965 -115.31907 11018 ft 315 kts 191°
2026-05-03 20:36 35.86804 -115.32444 11695 ft 319 kts 191°
2026-05-03 20:36 35.84614 -115.32985 12466 ft 322 kts 191°
2026-05-03 20:36 35.82404 -115.33529 13204 ft 326 kts 191°
2026-05-03 20:36 35.80168 -115.34078 13900 ft 329 kts 191°
2026-05-03 20:37 35.77908 -115.34633 14537 ft 333 kts 191°
2026-05-03 20:37 35.75629 -115.35191 15179 ft 336 kts 191°
2026-05-03 20:37 35.73323 -115.35755 15815 ft 339 kts 191°
2026-05-03 20:37 35.71001 -115.36319 16445 ft 342 kts 191°
2026-05-03 20:38 35.68654 -115.36890 17058 ft 345 kts 192°
2026-05-03 20:38 35.66287 -115.37468 17670 ft 348 kts 192°
2026-05-03 20:38 35.63903 -115.38051 18267 ft 351 kts 192°
2026-05-03 20:38 35.61492 -115.38599 18818 ft 354 kts 188°
2026-05-03 20:39 35.59016 -115.38669 19385 ft 358 kts 179°
2026-05-03 20:39 35.56521 -115.38484 19969 ft 360 kts 180°
2026-05-03 20:39 35.54012 -115.38297 20540 ft 362 kts 180°
2026-05-03 20:39 35.51492 -115.38111 21095 ft 364 kts 181°
2026-05-03 20:40 35.48954 -115.37929 21663 ft 366 kts 181°
2026-05-03 20:40 35.46408 -115.37814 22206 ft 365 kts 187°
2026-05-03 20:40 35.43908 -115.38230 22746 ft 362 kts 198°
2026-05-03 20:40 35.41548 -115.39247 23276 ft 359 kts 208°
2026-05-03 20:41 35.39331 -115.40659 23724 ft 359 kts 211°
2026-05-03 20:41 35.37122 -115.42081 24216 ft 358 kts 212°
2026-05-03 20:41 35.34912 -115.43497 24667 ft 359 kts 212°
2026-05-03 20:41 35.32694 -115.44913 25066 ft 360 kts 212°
2026-05-03 20:42 35.30469 -115.46330 25464 ft 362 kts 213°
2026-05-03 20:42 35.28249 -115.47741 25834 ft 363 kts 213°
2026-05-03 20:42 35.26006 -115.49170 26215 ft 364 kts 213°
2026-05-03 20:42 35.23753 -115.50607 26595 ft 366 kts 214°
2026-05-03 20:43 35.21495 -115.52048 26953 ft 367 kts 214°
2026-05-03 20:43 35.19222 -115.53492 27324 ft 369 kts 214°
2026-05-03 20:43 35.16941 -115.54939 27685 ft 370 kts 215°
2026-05-03 20:43 35.14655 -115.56391 27799 ft 367 kts 215°
2026-05-03 20:44 35.12530 -115.57946 27788 ft 347 kts 224°
2026-05-03 20:44 35.10783 -115.59908 27816 ft 338 kts 231°
2026-05-03 20:44 35.09165 -115.61988 27818 ft 337 kts 231°
2026-05-03 20:44 35.07549 -115.64064 27818 ft 337 kts 231°
2026-05-03 20:45 35.05937 -115.66134 27804 ft 336 kts 231°
2026-05-03 20:45 35.04327 -115.68199 27801 ft 336 kts 231°
2026-05-03 20:45 35.02716 -115.70262 27801 ft 336 kts 231°
2026-05-03 20:45 35.01105 -115.72321 27798 ft 336 kts 231°
2026-05-03 20:46 34.99490 -115.74379 27795 ft 335 kts 231°
2026-05-03 20:46 34.97875 -115.76435 27791 ft 335 kts 231°
2026-05-03 20:46 34.96282 -115.78460 27775 ft 335 kts 231°
2026-05-03 20:46 34.94647 -115.80536 27780 ft 335 kts 231°
2026-05-03 20:47 34.94357 -115.80905 27774 ft 335 kts 231°
2026-05-03 20:47 34.93848 -115.81552 27772 ft 335 kts 231°
2026-05-03 20:47 34.92238 -115.83601 27771 ft 335 kts 231°
2026-05-03 20:48 34.90629 -115.85651 27761 ft 335 kts 231°
2026-05-03 20:48 34.89019 -115.87701 27761 ft 335 kts 231°
2026-05-03 20:48 34.87408 -115.89749 27746 ft 335 kts 231°
2026-05-03 20:48 34.85802 -115.91792 27738 ft 334 kts 231°
2026-05-03 20:49 34.84189 -115.93837 27742 ft 334 kts 231°
2026-05-03 20:49 34.82575 -115.95877 27754 ft 335 kts 230°
2026-05-03 20:49 34.80960 -115.97915 27748 ft 335 kts 230°
2026-05-03 20:49 34.79344 -115.99959 27734 ft 335 kts 230°
2026-05-03 20:50 34.77731 -116.02000 27729 ft 335 kts 231°
2026-05-03 20:50 34.76113 -116.04048 27732 ft 336 kts 231°
2026-05-03 20:50 34.74499 -116.06096 27732 ft 336 kts 230°
2026-05-03 20:50 34.72891 -116.08132 27739 ft 337 kts 231°
2026-05-03 20:51 34.71277 -116.10192 27739 ft 337 kts 231°
2026-05-03 20:51 34.69661 -116.12259 27744 ft 336 kts 231°
2026-05-03 20:51 34.68048 -116.14321 27748 ft 336 kts 231°
2026-05-03 20:51 34.66436 -116.16380 27748 ft 336 kts 231°
2026-05-03 20:52 34.64824 -116.18436 27752 ft 336 kts 231°
2026-05-03 20:52 34.63211 -116.20491 27751 ft 336 kts 231°
2026-05-03 20:52 34.61593 -116.22548 27751 ft 336 kts 231°
2026-05-03 20:52 34.59978 -116.24592 27754 ft 336 kts 231°
2026-05-03 20:53 34.58357 -116.26640 27770 ft 336 kts 231°
2026-05-03 20:53 34.56741 -116.28684 27767 ft 336 kts 231°
2026-05-03 20:53 34.55123 -116.30731 27773 ft 335 kts 231°
2026-05-03 20:53 34.53513 -116.32772 27786 ft 335 kts 231°
2026-05-03 20:54 34.51902 -116.34815 27783 ft 335 kts 231°
2026-05-03 20:54 34.48681 -116.38887 27794 ft 335 kts 231°
2026-05-03 20:54 34.47066 -116.40925 27764 ft 335 kts 231°
2026-05-03 20:55 34.45453 -116.42962 27766 ft 335 kts 230°
2026-05-03 20:55 34.43833 -116.45009 27771 ft 337 kts 230°
2026-05-03 20:55 34.42241 -116.47082 27773 ft 335 kts 235°
2026-05-03 20:55 34.40970 -116.49426 27772 ft 332 kts 244°
2026-05-03 20:56 34.39941 -116.51927 27794 ft 332 kts 244°
2026-05-03 20:56 34.38914 -116.54431 27802 ft 332 kts 244°
2026-05-03 20:56 34.37885 -116.56936 27805 ft 332 kts 245°
2026-05-03 20:56 34.36853 -116.59437 27811 ft 332 kts 245°
2026-05-03 20:57 34.35822 -116.61935 27814 ft 332 kts 245°
2026-05-03 20:57 34.34790 -116.64432 27836 ft 332 kts 245°
2026-05-03 20:57 34.33759 -116.66926 27833 ft 331 kts 245°
2026-05-03 20:57 34.32736 -116.69417 27833 ft 331 kts 245°
2026-05-03 20:58 34.31725 -116.71925 27603 ft 332 kts 246°
2026-05-03 20:58 34.30727 -116.74425 27129 ft 327 kts 245°
2026-05-03 20:58 34.29749 -116.76874 26776 ft 321 kts 245°
2026-05-03 20:58 34.28786 -116.79278 26401 ft 314 kts 245°
2026-05-03 20:59 34.27841 -116.81635 26040 ft 309 kts 246°
2026-05-03 20:59 34.26904 -116.83957 25681 ft 305 kts 245°
2026-05-03 20:59 34.25981 -116.86240 25335 ft 300 kts 245°
2026-05-03 20:59 34.25076 -116.88481 25025 ft 294 kts 245°
2026-05-03 21:00 34.24184 -116.90687 24687 ft 289 kts 244°
2026-05-03 21:00 34.23887 -116.91421 24572 ft 288 kts 244°
2026-05-03 21:00 34.22449 -116.94976 24018 ft 279 kts 244°
2026-05-03 21:00 34.21600 -116.97078 23640 ft 278 kts 244°
2026-05-03 21:01 34.20853 -116.99227 23200 ft 278 kts 251°
2026-05-03 21:01 34.20261 -117.01444 22764 ft 277 kts 250°
2026-05-03 21:01 34.19661 -117.03666 22347 ft 280 kts 250°
2026-05-03 21:01 34.19056 -117.05905 21924 ft 280 kts 250°
2026-05-03 21:02 34.18453 -117.08138 21500 ft 280 kts 250°
2026-05-03 21:02 34.17848 -117.10374 21081 ft 280 kts 250°
2026-05-03 21:02 34.17240 -117.12610 20671 ft 280 kts 249°
2026-05-03 21:02 34.16633 -117.14845 20239 ft 280 kts 249°
2026-05-03 21:03 34.16023 -117.17088 19832 ft 283 kts 249°
2026-05-03 21:03 34.15404 -117.19353 19479 ft 285 kts 249°
2026-05-03 21:03 34.14774 -117.21655 19060 ft 298 kts 249°
2026-05-03 21:03 34.14106 -117.24088 18638 ft 310 kts 249°
2026-05-03 21:04 34.13419 -117.26574 18216 ft 314 kts 249°
2026-05-03 21:04 34.12727 -117.29075 17740 ft 314 kts 249°
2026-05-03 21:04 34.12034 -117.31573 17263 ft 314 kts 248°
2026-05-03 21:04 34.11341 -117.34067 16795 ft 314 kts 248°
2026-05-03 21:05 34.10651 -117.36562 16335 ft 313 kts 248°
2026-05-03 21:05 34.09979 -117.39062 15884 ft 314 kts 249°
2026-05-03 21:05 34.09343 -117.41581 15427 ft 314 kts 250°
2026-05-03 21:05 34.08726 -117.44092 14994 ft 314 kts 250°
2026-05-03 21:06 34.08110 -117.46618 14561 ft 314 kts 250°
2026-05-03 21:06 34.07489 -117.49145 14153 ft 314 kts 250°
2026-05-03 21:06 34.06702 -117.51566 13882 ft 308 kts 244°
2026-05-03 21:06 34.05855 -117.53927 13582 ft 306 kts 244°
2026-05-03 21:07 34.05010 -117.56274 13177 ft 306 kts 244°
2026-05-03 21:07 34.04159 -117.58636 12664 ft 308 kts 244°
2026-05-03 21:07 34.03305 -117.60999 12214 ft 307 kts 244°
2026-05-03 21:07 34.02457 -117.63352 11814 ft 306 kts 244°
2026-05-03 21:08 34.01615 -117.65689 11268 ft 302 kts 243°
2026-05-03 21:08 34.00840 -117.68037 10554 ft 302 kts 250°
2026-05-03 21:08 34.00473 -117.70513 10112 ft 298 kts 259°
2026-05-03 21:08 34.00248 -117.72940 9666 ft 287 kts 259°
2026-05-03 21:09 34.00022 -117.75294 9490 ft 282 kts 259°
2026-05-03 21:09 33.99789 -117.77641 9360 ft 282 kts 259°
2026-05-03 21:09 33.99554 -117.79997 9134 ft 282 kts 259°
2026-05-03 21:09 33.99319 -117.82347 8804 ft 282 kts 259°
2026-05-03 21:10 33.99166 -117.83891 8566 ft 280 kts 259°
2026-05-03 21:10 33.98935 -117.86216 8212 ft 278 kts 259°
2026-05-03 21:10 33.98710 -117.88521 7870 ft 276 kts 259°
2026-05-03 21:10 33.98488 -117.90813 7502 ft 275 kts 259°
2026-05-03 21:11 33.98267 -117.93091 7164 ft 272 kts 259°
2026-05-03 21:11 33.98050 -117.95317 6833 ft 267 kts 259°
2026-05-03 21:11 33.97832 -117.97533 6495 ft 264 kts 259°
2026-05-03 21:11 33.97616 -117.99718 6153 ft 261 kts 260°
2026-05-03 21:12 33.97401 -118.01879 5820 ft 258 kts 259°
2026-05-03 21:12 33.97188 -118.04011 5496 ft 254 kts 261°
2026-05-03 21:12 33.96979 -118.06113 5199 ft 251 kts 262°
2026-05-03 21:12 33.96773 -118.08183 4891 ft 248 kts 261°
2026-05-03 21:13 33.96568 -118.10232 4550 ft 245 kts 262°
2026-05-03 21:13 33.96365 -118.12259 4233 ft 242 kts 260°
2026-05-03 21:13 33.96166 -118.14257 3919 ft 239 kts 261°
2026-05-03 21:13 33.95969 -118.16228 3601 ft 235 kts 262°
2026-05-03 21:14 33.95777 -118.18161 3332 ft 231 kts 262°
2026-05-03 21:14 33.95584 -118.20067 3033 ft 228 kts 261°
2026-05-03 21:14 33.95393 -118.21959 2739 ft 227 kts 263°
2026-05-03 21:14 33.95203 -118.23845 2475 ft 225 kts 260°
2026-05-03 21:15 33.95009 -118.25716 2202 ft 226 kts 261°
2026-05-03 21:15 33.94817 -118.27598 1907 ft 225 kts 260°
2026-05-03 21:15 33.94630 -118.29456 1609 ft 222 kts 261°
2026-05-03 21:15 33.94446 -118.31281 1327 ft 214 kts 262°
2026-05-03 21:16 33.94272 -118.33004 1067 ft 200 kts 261°
2026-05-03 21:16 33.94112 -118.34576 768 ft 178 kts 262°
2026-05-03 21:16 33.93969 -118.35982 510 ft 161 kts 263°
2026-05-03 21:16 33.93838 -118.37265 323 ft 148 kts 263°
2026-05-03 21:17 33.93723 -118.38432 158 ft 137 kts 262°
2026-05-03 21:17 33.93620 -118.39486 124 ft 112 kts 259°
2026-05-03 21:17 33.93538 -118.40217 122 ft 63 kts 262°
2026-05-03 21:17 33.93508 -118.40537 122 ft 14 kts 265°
2026-05-03 21:18 33.93499 -118.40622 126 ft 11 kts 260°
2026-05-03 21:18 33.93508 -118.40721 126 ft 14 kts 316°
2026-05-03 21:18 33.93581 -118.40784 126 ft 14 kts 264°
2026-05-03 21:18 33.93601 -118.40881 126 ft 14 kts 335°
2026-05-03 21:19 33.93693 -118.40899 126 ft 13 kts 353°
2026-05-03 21:19 33.93775 -118.40912 124 ft 11 kts 353°
2026-05-03 21:19 33.93846 -118.40923 124 ft 10 kts 353°
2026-05-03 21:19 33.93872 -118.40881 126 ft 6 kts 95°
2026-05-03 21:20 33.93871 -118.40876 126 ft 0 kts 95°
2026-05-03 21:20 33.93873 -118.40846 126 ft 8 kts 81°
2026-05-03 21:20 33.93909 -118.40811 124 ft 6 kts 17°
2026-05-03 21:21 33.93949 -118.40811 123 ft 5 kts 353°
2026-05-03 21:21 33.93982 -118.40816 125 ft 4 kts 353°
2026-05-03 21:21 33.94009 -118.40820 124 ft 4 kts 352°
2026-05-03 21:21 33.94054 -118.40827 123 ft 8 kts 353°
2026-05-03 21:22 33.94095 -118.40849 124 ft 6 kts 294°
2026-05-03 21:22 33.94092 -118.40902 125 ft 7 kts 260°
2026-05-03 21:22 33.94090 -118.40923 124 ft 1 kts 263°
2026-05-03 21:22 33.94089 -118.40935 124 ft 1 kts 264°